Regional Weather Roundup
Issued by NWS

Home | Current Version | Previous Version | Graphics & Text | Print | Product List | Glossary On
Versions: 1 2 3 4 5 6 7 8 9 10 11 12 13 14 15 16 17 18 19 20 21 22 23 24 25 26 27 28 29 30 31 32 33 34 35 36 37 38 39 40 41 42 43 44 45 46 47 48 49 50
000
ASUS43 KFSD 301802
RWRSD

WEATHER ROUNDUP FOR SOUTH DAKOTA
NATIONAL WEATHER SERVICE SIOUX FALLS SD
100 PM CDT SUN APR 30 2017

NOTE: "FAIR" INDICATES FEW OR NO CLOUDS BELOW 12,000 FEET WITH NO
SIGNIFICANT WEATHER AND/OR OBSTRUCTIONS TO VISIBILITY.


SDZ001>005-009-010-012>017-301900-
NORTHWEST AND NORTH CENTRAL SOUTH DAKOTA

CITY           SKY/WX    TMP DP  RH WIND       PRES   REMARKS
BUFFALO          N/A     58  20  22 SE6       29.91F
FAITH            N/A     56  21  25 VRB5      29.97F
MOBRIDGE       SUNNY     62  23  22 NE7G18    29.95
$$

SDZ012>016-024>037-041>051-057-063-072>074-301900-
SOUTHWEST AND SOUTH CENTRAL SOUTH DAKOTA

CITY           SKY/WX    TMP DP  RH WIND       PRES   REMARKS
RAPID CTY ARPT SUNNY     55  21  26 NE9       29.98F
PIERRE         CLOUDY    56  24  29 NE17G28   29.92F
CUSTER         SUNNY     45  16  31 VRB6      29.97F
ELLSWORTH AFB  SUNNY     54  17  23 CALM      29.97F
PHILIP         MOSUNNY   55  22  27 N9        29.96F
PINE RIDGE     SUNNY     54  21  27 N16G22    29.94F
SPEARFISH      FAIR      52  21  30 VRB7G15   29.99F
WINNER         FAIR      50  21  32 NE24      29.89F
$$

SDZ004>011-016>023-039-040-301900-
NORTHEAST SOUTH DAKOTA

CITY           SKY/WX    TMP DP  RH WIND       PRES   REMARKS
ABERDEEN       CLOUDY    56  15  20 NE22G30   29.94F
WATERTOWN      CLOUDY    46  22  38 NE22G29   29.92F
BROOKINGS      LGT RAIN  41  26  55 NE22      29.88F
SISSETON         N/A     54  16  22 E18G24    29.96F
$$

SDZ017-020-022-023-036>040-048>070-301900-
SOUTHEAST SOUTH DAKOTA

CITY           SKY/WX    TMP DP  RH WIND       PRES   REMARKS
SIOUX FALLS    LGT RAIN  41  41 100 NE25G33   29.84F
HURON          CLOUDY    50  26  39 NE16G25   29.91F
CHAMBERLAIN    CLOUDY    51  20  29 N13G20    29.90F
MITCHELL       CLOUDY    48  28  46 NE18      29.89F
YANKTON        CLOUDY    39  34  81 N20G26    29.81F
$$

ABBREVIATIONS USED IN REMARKS
   TC - TEMPERATURE IN CELSIUS
  WCI - WIND CHILL INDEX
   HX - HEAT INDEX
  VSB - VISIBILITY




USA.gov is the U.S. government's official web portal to all federal, state and local government web resources and services.